Regional Weather Roundup
Issued by NWS San Angelo, TX

Current Version | Previous Version | Text Only | Print | Product List | Glossary On
Versions: 1 2 3 4 5 6 7 8 9 10 11 12 13 14 15 16 17 18 19 20 21 22 23 24 25 26 27 28 29 30 31 32 33 34 35 36 37 38 39 40 41 42 43 44 45 46 47 48 49 50
000
ASUS44 KSJT 222110
RWRSJT
WEST CENTRAL TEXAS REGIONAL WEATHER ROUNDUP
NATIONAL WEATHER SERVICE SAN ANGELO TX
400 PM CDT FRI AUG 22 2014

NOTE: "FAIR" INDICATES FEW OR NO CLOUDS BELOW 12,000 FEET WITH NO
SIGNIFICANT WEATHER AND/OR OBSTRUCTIONS TO VISIBILITY.

TXZ049-054-064>066-071>073-076>078-098-099-113-114-127-128-139-140-
154-155-168>170-222200
...LOCATIONS ACROSS WEST CENTRAL TEXAS...

CITY           SKY/WX    TMP DP  RH WIND       PRES   REMARKS
SAN ANGELO     SUNNY     98  46  17 S17G28    29.99F
ABILENE        SUNNY     98  51  20 S20G28    29.99F
DYESS AFB      SUNNY     98  55  23 S16G26    29.98F
JUNCTION       SUNNY     94  56  27 SE15G22   30.02F
SWEETWATER     SUNNY     98  42  15 S22G28    30.04F
BROWNWOOD      SUNNY     99  48  18 S20       29.99F
COLEMAN        CLEAR     96  49  20 S14G23    30.00F
SONORA         SUNNY     93  55  27 S17G24    30.06F
OZONA          FAIR      95  52  23 S14G24    30.04F
BRADY          SUNNY     97  54  23 S13       30.02F
$$

TEXAS PANHANDLE/OKLAHOMA PANHANDLE

CITY           SKY/WX    TMP DP  RH WIND       PRES   REMARKS
AMARILLO       MOSUNNY   96  53  23 S22G28    29.99F
BORGER         LGT RAIN  91  65  41 SE8G25    29.93F
CANADIAN       SUNNY    100  59  26 S13G26    29.90F
DALHART        MOSUNNY   95  47  19 S20G26    29.99F
DUMAS          PTCLDY    91  57  32 S35G45    30.00R
GUYMON         NOT AVBL
HEREFORD       PTCLDY    92  57  31 S15       30.01F
PAMPA          PTCLDY    94  55  26 S16       29.97F
PERRYTON       SUNNY     99  55  23 SW16G26   29.92F
$$

SOUTHERN PANHANDLE/SOUTH PLAINS/ROLLING PLAINS

CITY           SKY/WX    TMP DP  RH WIND       PRES   REMARKS
LUBBOCK        MOSUNNY   92  59  33 S13       30.02F
SNYDER         SUNNY     96  49  20 S14G24    30.00F
CHILDRESS      SUNNY    101  59  24 S18G24    29.93F
SEMINOLE       PTCLDY    95  56  27 S10       30.03F
$$

PERMIAN BASIN

CITY           SKY/WX    TMP DP  RH WIND       PRES   REMARKS
MIDLAND        SUNNY     94  59  31 VRB7G16   30.00F
ODESSA         SUNNY     93  57  29 SE8       30.01F
WINK           MOSUNNY   98  59  27 SE13G21   29.96F
$$

FAR WEST/SOUTHWEST MOUNTAINS/TRANS PECOS

CITY           SKY/WX    TMP DP  RH WIND       PRES   REMARKS
ALPINE         PTCLDY    89  55  31 S9        30.15F
DRYDEN           N/A    101  57  23 VRB7      29.96F
EL PASO        LGT RAIN  75  62  64 SE5       30.11F
FORT STOCKTON  SUNNY     94  60  32 SE8       30.00F
GUADALUPE PASS PTSUNNY   82  57  42 SW21G30   30.18F
MARFA          MOSUNNY   86  55  35 S9        30.17F
PECOS          CLEAR     97  59  28 S5        29.95F
$$

DALLAS/FORT WORTH METROPLEX

CITY           SKY/WX    TMP DP  RH WIND       PRES   REMARKS
DFW AIRPORT    MOSUNNY   99  63  30 S13       29.97F
FTW MEACHAM    SUNNY    102  59  24 S14G20    29.95F
DAL-EXECUTIVE  SUNNY    100  61  27 VRB7      29.98F
GRAND PRAIRIE  NOT AVBL
ADDISON        SUNNY     97  59  28 S14G21    29.98F
MESQUITE       CLEAR    100  57  23 SW8       29.98F
LANCASTER      CLEAR    100  60  26 S9G16     29.99F
$$

NORTH CENTRAL TEXAS

CITY           SKY/WX    TMP DP  RH WIND       PRES   REMARKS
SHRMAN/DENISON CLEAR     98  59  27 S12G20    29.99F
GAINESVILLE    SUNNY     95  64  35 S9G22     29.99F
BRIDGEPORT     CLEAR     99  49  18 SW9G17    29.98F
DENTON         SUNNY     99  58  25 SW13      29.96F
WAXAHACHIE     CLEAR     98  56  23 S13       29.99F
GRANBURY       CLEAR    103  50  17 SE8       29.97F
$$

WESTERN NORTH TEXAS

CITY           SKY/WX    TMP DP  RH WIND       PRES   REMARKS
WICHITA FALLS  SUNNY    104  54  19 S21G28    29.92F
VERNON         CLEAR    103  53  18 S9G22     29.92F
BRECKENRIDGE   CLEAR    103  43  13 SW12G22   29.96F HAZE
COMANCHE       SUNNY    100  45  15 S10G22    30.00F
$$

CENTRAL AND SOUTH CENTRAL TEXAS

CITY           SKY/WX    TMP DP  RH WIND       PRES   REMARKS
AUSTIN/BERGSTM MOSUNNY  101  61  26 SE14G21   29.98F
WACO           SUNNY    100  59  25 S13       29.98F
HILLSBORO      CLEAR    100  55  22 S8        29.98F
TEMPLE         SUNNY    100  59  25 S10       29.99F
KILLEEN-GRAY   MOSUNNY   99  57  25 S13       29.99F
FORT HOOD      SUNNY    102  58  23 SE10G20   29.99F
GEORGETOWN     SUNNY    100  61  27 S12G21    29.99F
LAGO VISTA     FAIR     100  53  21 SE10G17   30.02F
SAN MARCOS     SUNNY    100  61  27 SE13G18   29.99F
NEW BRAUNFELS  SUNNY    101  58  24 S14       29.97F
RANDOLPH AFB   SUNNY    100  55  22 SE13      29.99F
SAN ANTONIO    MOSUNNY  100  57  23 S9G21     29.99F
STINSON        SUNNY    101  55  21 SE15      29.96F
PLEASANTON     NOT AVBL
LA GRANGE      SUNNY    102  67  32 S10G16    29.97F
GIDDINGS       CLEAR     99  61  28 SE9       30.02F
$$

EAST TEXAS

CITY           SKY/WX    TMP DP  RH WIND       PRES   REMARKS
PARIS          SUNNY     97  70  41 S7        30.01F
CLARKSVILLE    PTCLDY    96  67  38 S3        30.00F
TYLER          SUNNY     96  69  41 S8        30.01F
LONGVIEW       SUNNY     96  69  41 SW8       30.01F
PALESTINE      CLEAR     96  70  42 S5        30.03F
NACOGDOCHES    MOSUNNY   93  72  49 S7        30.03F
$$

TEXAS HILL COUNTRY AND EDWARDS PLATEAU

CITY           SKY/WX    TMP DP  RH WIND       PRES   REMARKS
LLANO          CLEAR    102  50  17 S13       30.01F
HORSESHOE BAY  FAIR     100  53  20 S7G17     30.00F
KERRVILLE      SUNNY     97  56  25 S12G21    30.04F
FREDERICKSBRG  SUNNY     95  52  23 S12G18    30.04F
ROCKSPRINGS    CLEAR     91  55  29 S14G23    30.08F
HONDO          SUNNY    100  52  19 SE16      29.99F
UVALDE         CLEAR     99  51  19 S12G18    29.97F
DEL RIO        SUNNY    102  53  19 SE18G29   29.91F
$$

SOUTHEAST TEXAS

CITY           SKY/WX    TMP DP  RH WIND       PRES   REMARKS
COLLEGE STN    MOSUNNY   97  69  40 SE14G20   30.00F
CALDWELL       CLEAR     99  61  28 S9G17     30.02F
CROCKETT         N/A     97  75  49 SE5       30.04F
BRENHAM        SUNNY     99  65  33 SE9       30.00F
HUNTSVILLE     MOSUNNY   95  68  41 E5        30.02F
CONROE         SUNNY     94  71  47 SE8       30.02F
HOUSTON BUSH   MOSUNNY   96  69  41 VRB6      30.01F
HOUSTON HOBBY  PTSUNNY   93  74  53 SE7       30.01F
PERLAND        MOSUNNY   93  73  52 SE9G24    30.03F
WHARTON        PTCLDY    96  69  41 S10G18    30.01F
$$

THE UPPER TEXAS COAST

CITY           SKY/WX    TMP DP  RH WIND       PRES   REMARKS
ORANGE         CLEAR     93  70  47 SE7       30.05F
PORT ARTHUR    MOSUNNY   94  74  52 S8        30.03F
GALVESTON      SUNNY     90  77  65 S12       30.05F
ANGLETON       SUNNY     92  73  53 S13       30.03F
BAY CITY       PTCLDY    96  72  45 S9        30.02F
$$

TEXAS COASTAL BEND, RIO GRANDE PLAINS DEEP SOUTH TEXAS

CITY           SKY/WX    TMP DP  RH WIND       PRES   REMARKS
VICTORIA       SUNNY     99  66  33 S16G24    30.00F
BEEVILLE       FAIR     100  63  30 SE17G24   29.98S
ROCKPORT       SUNNY     91  74  57 SE15      30.00F
PORT ARANSAS   CLEAR     87  77  72 SE10      30.01S
PORT LAVACA    CLEAR     94  69  42 SE13G20   30.00F
CORPUS CHRISTI MOSUNNY   96  65  35 SE21G29   29.98F
KINGSVILLE NAS MOSUNNY   98  71  41 SE21G28   29.96F
COTULLA        SUNNY    103  48  15 S13G22    29.93F
LAREDO         SUNNY    105  50  16 SE16G23   29.94F
BROWNSVILLE    MOSUNNY   96  69  41 SE18      29.98F
PORT ISABEL    MOSUNNY   91  75  59 E18G25    29.99F
HEBBRONVILLE   CLEAR    100  51  19 SE9G22    29.96F
MCALLEN        MOSUNNY   98  57  25 SE17G25   29.95F
WESLACO        MOSUNNY   98  58  25 SE13G20   29.95F HAZE
FALFURRIAS     CLEAR    107  55  18 SE14      29.93F
EDINBURG       PTCLDY   102  57  22 S15G25    29.95F
$$



USA.gov is the U.S. government's official web portal to all federal, state and local government web resources and services.